{"data":{"norad_id":63384,"intl_designator":"2025-063X","name":"STARLINK-33658","alt_names":[],"object_type":"PAYLOAD","status":"ACTIVE","operator":null,"country":"US","launch_date":"2025-03-26","launch_site_code":"AFWTR","launch_vehicle":null,"mission":null,"orbit_class":"UNKNOWN","rcs_meters":null,"size_class":null,"mass_kg":null,"dimensions":null,"purposes":["comms"],"wikipedia_slug":null,"has_3d_model":false,"image_url":null,"decayed_at":null,"tle_current":{"epoch":"2026-05-25T03:08:25.490976Z","epoch_age_seconds":64052,"freshness":"FRESH","line1":"1 63384U 25063X   26145.13085059 -.00016334  00000+0 -45821-3 0  9990","line2":"2 63384  53.1602  55.2157 0001758  74.2712 285.8485 15.35407321 66498","mean_motion":15.35407321,"eccentricity":0.0001758,"inclination_deg":53.1602,"raan_deg":55.2157,"arg_perigee_deg":74.2712,"mean_anomaly_deg":285.8485,"bstar":-0.00045821,"rev_number":6649,"period_min":93.786188218911,"perigee_km":458.50881322532,"apogee_km":460.91300054939,"semimajor_km":6837.8479068874,"source":"CELESTRAK","updated_at":"2026-05-25T13:38:19.966106Z"}}}